Time,TemperatureF,DewpointF,PressureIn,WindDirection,WindDirectionDegrees,WindSpeedMPH,WindSpeedGustMPH,Humidity,HourlyPrecipIn,Conditions,Clouds,dailyrainin,SoftwareType,DateUTC
2013-01-16 00:02:00,34.0,31.0,30.22,WNW,286,0.0,-999.0,88,-99.99,,,0.00,weatherlink.com 1.10,2013-01-16 06:02:00,
2013-01-16 00:17:00,34.1,31.0,30.21,WNW,298,0.0,-999.0,88,-99.99,,,0.00,weatherlink.com 1.10,2013-01-16 06:17:00,
2013-01-16 00:32:00,34.3,31.0,30.21,NW,313,0.0,-999.0,87,-99.99,,,0.00,weatherlink.com 1.10,2013-01-16 06:32:00,
2013-01-16 00:47:00,34.4,31.0,30.21,WNW,302,0.0,-999.0,87,-99.99,,,0.00,weatherlink.com 1.10,2013-01-16 06:47:00,
2013-01-16 01:02:00,34.4,31.0,30.21,WNW,298,0.0,-999.0,87,-99.99,,,0.00,weatherlink.com 1.10,2013-01-16 07:02:00,
2013-01-16 01:17:00,34.3,31.0,30.21,NW,309,0.0,-999.0,86,-99.99,,,0.00,weatherlink.com 1.10,2013-01-16 07:17:00,
2013-01-16 01:32:00,34.0,31.0,30.22,NW,309,0.0,-999.0,87,-99.99,,,0.00,weatherlink.com 1.10,2013-01-16 07:32:00,
2013-01-16 01:47:00,34.1,31.0,30.22,NW,309,0.0,-999.0,87,-99.99,,,0.00,weatherlink.com 1.10,2013-01-16 07:47:00,
2013-01-16 02:02:00,34.1,31.0,30.21,NW,309,0.0,-999.0,87,-99.99,,,0.00,weatherlink.com 1.10,2013-01-16 08:02:00,
2013-01-16 02:17:00,34.0,31.0,30.18,NW,309,0.0,-999.0,87,-99.99,,,0.00,weatherlink.com 1.10,2013-01-16 08:17:00,
2013-01-16 02:32:00,34.3,31.0,30.19,NW,314,6.0,-999.0,86,-99.99,,,0.00,weatherlink.com 1.10,2013-01-16 08:32:00,
2013-01-16 02:47:00,34.4,30.0,30.21,WNW,302,6.0,-999.0,85,-99.99,,,0.00,weatherlink.com 1.10,2013-01-16 08:47:00,
2013-01-16 03:02:00,34.3,30.0,30.22,WNW,301,3.0,-999.0,84,-99.99,,,0.00,weatherlink.com 1.10,2013-01-16 09:02:00,
2013-01-16 03:17:00,34.0,30.0,30.22,NW,304,6.0,-999.0,84,-99.99,,,0.00,weatherlink.com 1.10,2013-01-16 09:17:00,
2013-01-16 03:32:00,33.8,30.0,30.22,WNW,295,0.0,-999.0,84,-99.99,,,0.00,weatherlink.com 1.10,2013-01-16 09:32:00,
2013-01-16 03:47:00,33.6,29.0,30.22,WNW,302,0.0,-999.0,84,-99.99,,,0.00,weatherlink.com 1.10,2013-01-16 09:47:00,
2013-01-16 04:02:00,33.5,29.0,30.23,WNW,299,0.0,-999.0,84,-99.99,,,0.00,weatherlink.com 1.10,2013-01-16 10:02:00,
2013-01-16 04:17:00,33.4,29.0,30.23,WNW,300,0.0,-999.0,83,-99.99,,,0.00,weatherlink.com 1.10,2013-01-16 10:17:00,
2013-01-16 04:32:00,33.3,29.0,30.23,WNW,286,0.0,-999.0,83,-99.99,,,0.00,weatherlink.com 1.10,2013-01-16 10:32:00,
2013-01-16 04:47:00,33.2,29.0,30.24,WNW,294,0.0,-999.0,83,-99.99,,,0.00,weatherlink.com 1.10,2013-01-16 10:47:00,
2013-01-16 05:02:00,33.0,28.0,30.24,NW,307,0.0,-999.0,82,-99.99,,,0.00,weatherlink.com 1.10,2013-01-16 11:02:00,
2013-01-16 05:17:00,32.8,28.0,30.25,WNW,302,0.0,-999.0,82,-99.99,,,0.00,weatherlink.com 1.10,2013-01-16 11:17:00,
2013-01-16 05:32:00,32.6,27.0,30.25,NW,304,0.0,-999.0,81,-99.99,,,0.00,weatherlink.com 1.10,2013-01-16 11:32:00,
2013-01-16 05:47:00,32.3,27.0,30.26,WNW,302,0.0,-999.0,81,-99.99,,,0.00,weatherlink.com 1.10,2013-01-16 11:47:00,
2013-01-16 06:02:00,31.9,27.0,30.26,NW,318,0.0,-999.0,81,-99.99,,,0.00,weatherlink.com 1.10,2013-01-16 12:02:00,
2013-01-16 06:17:00,31.6,26.0,30.26,NW,309,3.0,-999.0,81,-99.99,,,0.00,weatherlink.com 1.10,2013-01-16 12:17:00,
2013-01-16 06:32:00,31.2,26.0,30.26,WNW,300,0.0,-999.0,81,-99.99,,,0.00,weatherlink.com 1.10,2013-01-16 12:32:00,
2013-01-16 06:47:00,30.7,26.0,30.28,NW,304,0.0,-999.0,81,-99.99,,,0.00,weatherlink.com 1.10,2013-01-16 12:47:00,
2013-01-16 07:02:00,30.4,26.0,30.28,NW,304,0.0,-999.0,82,-99.99,,,0.00,weatherlink.com 1.10,2013-01-16 13:02:00,
2013-01-16 07:17:00,30.1,25.0,30.28,WNW,303,0.0,-999.0,82,-99.99,,,0.00,weatherlink.com 1.10,2013-01-16 13:17:00,
2013-01-16 07:32:00,29.9,25.0,30.28,WNW,303,0.0,-999.0,82,-99.99,,,0.00,weatherlink.com 1.10,2013-01-16 13:32:00,
2013-01-16 07:47:00,29.9,25.0,30.29,NW,304,0.0,-999.0,82,-99.99,,,0.00,weatherlink.com 1.10,2013-01-16 13:47:00,
2013-01-16 08:02:00,30.4,26.0,30.30,WNW,298,0.0,-999.0,82,-99.99,,,0.00,weatherlink.com 1.10,2013-01-16 14:02:00,
2013-01-16 08:17:00,31.1,26.0,30.30,WNW,298,0.0,-999.0,81,-99.99,,,0.00,weatherlink.com 1.10,2013-01-16 14:17:00,
2013-01-16 08:32:00,32.0,27.0,30.30,WNW,298,0.0,-999.0,80,-99.99,,,0.00,weatherlink.com 1.10,2013-01-16 14:32:00,
2013-01-16 08:47:00,32.8,27.0,30.30,NNW,345,0.0,-999.0,78,-99.99,,,0.00,weatherlink.com 1.10,2013-01-16 14:47:00,
2013-01-16 09:02:00,33.2,27.0,30.30,NW,315,0.0,-999.0,78,-99.99,,,0.00,weatherlink.com 1.10,2013-01-16 15:02:00,
2013-01-16 09:17:00,33.8,27.0,30.30,WNW,299,0.0,-999.0,77,-99.99,,,0.00,weatherlink.com 1.10,2013-01-16 15:17:00,
2013-01-16 09:33:00,34.6,28.0,30.31,West,277,4.0,-999.0,76,-99.99,,,0.00,weatherlink.com 1.10,2013-01-16 15:33:00,
2013-01-16 09:48:00,35.7,28.0,30.32,WNW,297,0.0,-999.0,74,-99.99,,,0.00,weatherlink.com 1.10,2013-01-16 15:48:00,
2013-01-16 10:03:00,36.9,29.0,30.31,NW,315,0.0,-999.0,73,-99.99,,,0.00,weatherlink.com 1.10,2013-01-16 16:03:00,
2013-01-16 10:18:00,38.0,29.0,30.31,WNW,302,6.0,-999.0,71,-99.99,,,0.00,weatherlink.com 1.10,2013-01-16 16:18:00,
2013-01-16 10:33:00,38.3,29.0,30.31,NNW,336,0.0,-999.0,68,-99.99,,,0.00,weatherlink.com 1.10,2013-01-16 16:33:00,
2013-01-16 10:48:00,39.3,29.0,30.30,WNW,299,2.0,-999.0,68,-99.99,,,0.00,weatherlink.com 1.10,2013-01-16 16:48:00,
2013-01-16 11:03:00,40.1,29.0,30.30,North,9,7.0,-999.0,64,-99.99,,,0.00,weatherlink.com 1.10,2013-01-16 17:03:00,
2013-01-16 11:18:00,40.7,29.0,30.29,North,360,4.0,-999.0,64,-99.99,,,0.00,weatherlink.com 1.10,2013-01-16 17:18:00,
2013-01-16 11:33:00,41.4,29.0,30.28,NNW,342,2.0,-999.0,62,-99.99,,,0.00,weatherlink.com 1.10,2013-01-16 17:33:00,
2013-01-16 11:48:00,41.9,30.0,30.27,WNW,302,5.0,-999.0,62,-99.99,,,0.00,weatherlink.com 1.10,2013-01-16 17:48:00,
2013-01-16 12:03:00,42.0,29.0,30.27,NW,313,0.0,-999.0,60,-99.99,,,0.00,weatherlink.com 1.10,2013-01-16 18:03:00,
2013-01-16 12:18:00,42.8,29.0,30.25,NNE,17,7.0,-999.0,58,-99.99,,,0.00,weatherlink.com 1.10,2013-01-16 18:18:00,
2013-01-16 12:33:00,43.3,29.0,30.24,North,360,5.0,-999.0,57,-99.99,,,0.00,weatherlink.com 1.10,2013-01-16 18:33:00,
2013-01-16 12:48:00,43.1,28.0,30.23,NW,307,4.0,-999.0,55,-99.99,,,0.00,weatherlink.com 1.10,2013-01-16 18:48:00,
2013-01-16 13:03:00,43.9,28.0,30.23,NNE,17,4.0,-999.0,54,-99.99,,,0.00,weatherlink.com 1.10,2013-01-16 19:03:00,
2013-01-16 13:18:00,44.5,29.0,30.22,North,351,2.0,-999.0,56,-99.99,,,0.00,weatherlink.com 1.10,2013-01-16 19:18:00,
2013-01-16 13:33:00,44.7,29.0,30.21,NW,311,1.0,-999.0,54,-99.99,,,0.00,weatherlink.com 1.10,2013-01-16 19:33:00,
2013-01-16 13:48:00,45.0,29.0,30.21,NW,318,4.0,-999.0,53,-99.99,,,0.00,weatherlink.com 1.10,2013-01-16 19:48:00,
2013-01-16 14:03:00,45.5,29.0,30.21,NW,315,1.0,-999.0,53,-99.99,,,0.00,weatherlink.com 1.10,2013-01-16 20:03:00,
2013-01-16 14:18:00,45.4,28.0,30.21,NW,321,4.0,-999.0,51,-99.99,,,0.00,weatherlink.com 1.10,2013-01-16 20:18:00,
2013-01-16 14:33:00,45.4,28.0,30.20,NW,305,0.0,-999.0,51,-99.99,,,0.00,weatherlink.com 1.10,2013-01-16 20:33:00,
2013-01-16 14:48:00,45.6,28.0,30.20,NW,309,6.0,-999.0,50,-99.99,,,0.00,weatherlink.com 1.10,2013-01-16 20:48:00,
2013-01-16 15:03:00,45.9,29.0,30.20,NW,304,10.0,-999.0,51,-99.99,,,0.00,weatherlink.com 1.10,2013-01-16 21:03:00,
2013-01-16 15:18:00,45.7,28.0,30.20,West,275,9.0,-999.0,51,-99.99,,,0.00,weatherlink.com 1.10,2013-01-16 21:18:00,
2013-01-16 15:33:00,45.5,28.0,30.19,West,275,4.0,-999.0,51,-99.99,,,0.00,weatherlink.com 1.10,2013-01-16 21:33:00,
2013-01-16 15:48:00,46.1,29.0,30.20,WNW,284,0.0,-999.0,51,-99.99,,,0.00,weatherlink.com 1.10,2013-01-16 21:48:00,
2013-01-16 16:03:00,46.3,28.0,30.20,WNW,288,0.0,-999.0,50,-99.99,,,0.00,weatherlink.com 1.10,2013-01-16 22:03:00,
2013-01-16 16:18:00,45.9,28.0,30.20,WNW,296,5.0,-999.0,50,-99.99,,,0.00,weatherlink.com 1.10,2013-01-16 22:18:00,
2013-01-16 16:33:00,45.8,28.0,30.20,WNW,295,3.0,-999.0,51,-99.99,,,0.00,weatherlink.com 1.10,2013-01-16 22:33:00,
2013-01-16 16:48:00,45.4,28.0,30.21,West,275,0.0,-999.0,50,-99.99,,,0.00,weatherlink.com 1.10,2013-01-16 22:48:00,
2013-01-16 17:03:00,45.1,28.0,30.21,NW,307,4.0,-999.0,51,-99.99,,,0.00,weatherlink.com 1.10,2013-01-16 23:03:00,
2013-01-16 17:18:00,44.5,27.0,30.22,WNW,282,4.0,-999.0,51,-99.99,,,0.00,weatherlink.com 1.10,2013-01-16 23:18:00,
2013-01-16 17:33:00,44.0,27.0,30.23,NW,304,0.0,-999.0,51,-99.99,,,0.00,weatherlink.com 1.10,2013-01-16 23:33:00,
2013-01-16 17:48:00,43.2,26.0,30.24,NW,304,0.0,-999.0,52,-99.99,,,0.00,weatherlink.com 1.10,2013-01-16 23:48:00,
2013-01-16 18:03:00,42.1,26.0,30.24,WNW,303,0.0,-999.0,53,-99.99,,,0.00,weatherlink.com 1.10,2013-01-17 00:03:00,
2013-01-16 18:18:00,40.7,25.0,30.24,NW,304,0.0,-999.0,55,-99.99,,,0.00,weatherlink.com 1.10,2013-01-17 00:18:00,
2013-01-16 18:33:00,37.3,24.0,30.25,WNW,303,0.0,-999.0,60,-99.99,,,0.00,weatherlink.com 1.10,2013-01-17 00:33:00,
2013-01-16 18:48:00,35.9,23.0,30.25,NW,304,0.0,-999.0,61,-99.99,,,0.00,weatherlink.com 1.10,2013-01-17 00:48:00,
2013-01-16 19:03:00,35.0,23.0,30.25,NW,304,0.0,-999.0,63,-99.99,,,0.00,weatherlink.com 1.10,2013-01-17 01:03:00,
2013-01-16 19:19:00,34.4,23.0,30.25,NW,304,0.0,-999.0,64,-99.99,,,0.00,weatherlink.com 1.10,2013-01-17 01:19:00,
2013-01-16 19:34:00,34.1,23.0,30.25,NW,304,0.0,-999.0,65,-99.99,,,0.00,weatherlink.com 1.10,2013-01-17 01:34:00,
2013-01-16 19:49:00,33.0,23.0,30.25,WNW,303,0.0,-999.0,66,-99.99,,,0.00,weatherlink.com 1.10,2013-01-17 01:49:00,
2013-01-16 20:04:00,33.0,23.0,30.26,NW,304,0.0,-999.0,66,-99.99,,,0.00,weatherlink.com 1.10,2013-01-17 02:04:00,
2013-01-16 20:19:00,32.5,23.0,30.25,WNW,303,0.0,-999.0,67,-99.99,,,0.00,weatherlink.com 1.10,2013-01-17 02:19:00,
2013-01-16 20:34:00,32.0,22.0,30.25,NW,304,0.0,-999.0,68,-99.99,,,0.00,weatherlink.com 1.10,2013-01-17 02:34:00,
2013-01-16 20:49:00,31.1,22.0,30.25,NW,304,0.0,-999.0,69,-99.99,,,0.00,weatherlink.com 1.10,2013-01-17 02:49:00,
2013-01-16 21:04:00,31.1,22.0,30.26,NW,304,0.0,-999.0,69,-99.99,,,0.00,weatherlink.com 1.10,2013-01-17 03:04:00,
2013-01-16 21:19:00,30.8,22.0,30.26,NW,304,0.0,-999.0,70,-99.99,,,0.00,weatherlink.com 1.10,2013-01-17 03:19:00,
2013-01-16 21:34:00,30.5,22.0,30.26,WNW,303,0.0,-999.0,70,-99.99,,,0.00,weatherlink.com 1.10,2013-01-17 03:34:00,
2013-01-16 21:49:00,29.9,22.0,30.27,NW,304,0.0,-999.0,71,-99.99,,,0.00,weatherlink.com 1.10,2013-01-17 03:49:00,
2013-01-16 22:04:00,29.4,21.0,30.26,WNW,303,0.0,-999.0,72,-99.99,,,0.00,weatherlink.com 1.10,2013-01-17 04:04:00,
2013-01-16 22:19:00,29.2,21.0,30.26,NW,304,0.0,-999.0,72,-99.99,,,0.00,weatherlink.com 1.10,2013-01-17 04:19:00,
2013-01-16 22:34:00,29.1,21.0,30.26,NW,304,0.0,-999.0,73,-99.99,,,0.00,weatherlink.com 1.10,2013-01-17 04:34:00,
2013-01-16 22:49:00,28.8,21.0,30.26,NW,304,0.0,-999.0,73,-99.99,,,0.00,weatherlink.com 1.10,2013-01-17 04:49:00,
2013-01-16 23:04:00,28.5,21.0,30.26,NW,304,0.0,-999.0,73,-99.99,,,0.00,weatherlink.com 1.10,2013-01-17 05:04:00,
2013-01-16 23:19:00,28.0,21.0,30.26,NW,304,0.0,-999.0,74,-99.99,,,0.00,weatherlink.com 1.10,2013-01-17 05:19:00,
2013-01-16 23:34:00,27.8,21.0,30.27,NW,304,0.0,-999.0,75,-99.99,,,0.00,weatherlink.com 1.10,2013-01-17 05:34:00,
2013-01-16 23:49:00,27.8,21.0,30.27,NW,304,0.0,-999.0,75,-99.99,,,0.00,weatherlink.com 1.10,2013-01-17 05:49:00,